FW1048 Weather Reports


Display with metric or nautical units.
time (UTC)temp
F
wind
direction
speed
MPH
gust
MPH
rain 1hr
in
rain 24hr
in
rain mn
in
humidity
%
barometer
mb
20260906055804 63 45 1.0 3.0 0.00 0.00 0.00 93 1023.0
20260906055306 63 94 0.0 0.0 0.00 0.00 0.00 93 1023.0
20260906054805 63 94 0.0 2.0 0.00 0.00 0.00 93 1022.9
20260906054304 63 94 0.0 3.0 0.00 0.00 0.00 93 1022.9
20260906052806 62 94 1.0 3.0 0.00 0.00 0.00 93 1022.8
20260906052306 62 94 1.0 3.0 0.00 0.00 0.00 93 1022.7
20260906051805 62 95 1.0 3.0 0.00 0.00 0.00 93 1022.8
20260906051306 62 95 0.0 3.0 0.00 0.00 0.00 93 1022.7
20260906050804 62 95 0.0 3.0 0.00 0.00 0.00 93 1022.6
20260906050305 62 95 1.0 3.0 0.00 0.00 0.00 93 1022.7
20260906045804 62 293 2.0 3.0 0.00 0.00 0.00 94 1022.6
20260906045306 62 79 0.0 3.0 0.00 0.00 0.00 93 1022.6
20260906044804 62 79 0.0 3.0 0.00 0.00 0.00 94 1022.5
20260906044305 62 79 0.0 3.0 0.00 0.00 0.00 93 1022.5
20260906043805 62 80 1.0 2.0 0.00 0.00 0.00 94 1022.5
20260906043305 62 80 0.0 2.0 0.00 0.00 0.00 93 1022.4
20260906042804 62 80 1.0 2.0 0.00 0.00 0.00 93 1022.4
20260906042306 62 80 0.0 3.0 0.00 0.00 0.00 93 1022.4
20260906041805 62 80 1.0 3.0 0.00 0.00 0.00 93 1022.3
20260906041304 62 77 1.0 2.0 0.00 0.00 0.00 93 1022.2
20260906040804 62 64 0.0 2.0 0.00 0.00 0.00 93 1022.2
20260906040305 62 50 1.0 2.0 0.00 0.00 0.00 94 1022.2
20260906035306 62 55 0.0 1.0 0.00 0.00 0.00 93 1022.1
20260906034804 62 53 0.0 2.0 0.00 0.00 0.00 93 1022.0
20260906034304 62 53 0.0 3.0 0.00 0.00 0.00 93 1021.9
20260906033805 62 53 1.0 3.0 0.00 0.00 0.00 93 1021.9
20260906033304 62 53 0.0 0.0 0.00 0.00 0.00 92 1021.9
20260906032804 62 52 0.0 0.0 0.00 0.00 0.00 93 1021.9
20260906032306 62 53 0.0 0.0 0.00 0.00 0.00 92 1021.9
20260906031805 62 56 0.0 1.0 0.00 0.00 0.00 92 1021.8
20260906031304 63 53 0.0 1.0 0.00 0.00 0.00 93 1021.8
20260906030304 63 54 0.0 1.0 0.00 0.00 0.00 92 1021.7
20260906025804 63 54 0.0 1.0 0.00 0.00 0.00 92 1021.7
20260906024804 63 53 1.0 2.0 0.00 0.00 0.00 92 1021.6
20260906024304 63 53 0.0 3.0 0.00 0.00 0.00 92 1021.6
20260906023804 63 52 1.0 3.0 0.00 0.00 0.00 93 1021.5
20260906023304 63 54 0.0 1.0 0.00 0.00 0.00 92 1021.5
20260906022804 63 54 0.0 1.0 0.00 0.00 0.00 91 1021.4
20260906022306 63 55 0.0 1.0 0.00 0.00 0.00 91 1021.4
20260906020805 64 53 0.0 2.0 0.00 0.00 0.00 91 1021.3
20260906020304 64 50 1.0 2.0 0.00 0.00 0.00 91 1021.4
20260906015804 64 311 0.0 3.0 0.00 0.00 0.00 91 1021.4
20260906015306 64 312 0.0 3.0 0.00 0.00 0.00 90 1021.3
20260906014804 64 311 2.0 3.0 0.00 0.00 0.00 90 1021.4
20260906014305 64 312 1.0 2.0 0.00 0.00 0.00 90 1021.3
20260906013804 64 313 1.0 2.0 0.00 0.00 0.00 90 1021.3
20260906013304 65 314 0.0 2.0 0.00 0.00 0.00 90 1021.4
20260906012804 65 315 1.0 2.0 0.00 0.00 0.00 90 1021.4
20260906012306 65 315 1.0 3.0 0.00 0.00 0.00 91 1021.4
20260906011804 65 315 1.0 3.0 0.00 0.00 0.00 90 1021.4
20260906011304 65 315 1.0 3.0 0.00 0.00 0.00 91 1021.3
20260906010804 65 316 0.0 2.0 0.00 0.00 0.00 90 1021.4
20260906010304 65 317 1.0 2.0 0.00 0.00 0.00 90 1021.3
20260906005804 65 318 1.0 3.0 0.00 0.00 0.00 89 1021.3
20260906005306 65 317 2.0 3.0 0.00 0.00 0.00 90 1021.1
20260906004804 65 317 0.0 2.0 0.00 0.00 0.00 90 1021.2
20260906004304 65 317 0.0 2.0 0.00 0.00 0.00 90 1021.2
20260906003304 65 318 0.0 2.0 0.00 0.00 0.00 90 1021.1
20260906002804 65 318 1.0 3.0 0.00 0.00 0.00 90 1021.1
20260906001803 66 318 1.0 3.0 0.00 0.00 0.00 89 1021.1
20260906001304 66 318 1.0 3.0 0.00 0.00 0.00 89 1021.1
20260906000804 66 317 0.0 1.0 0.00 0.00 0.00 89 1021.1
20260906000304 66 316 0.0 3.0 0.00 0.00 0.00 89 1021.1
20260905235804 66 317 1.0 3.0 0.00 0.00 0.00 89 1021.0
20260905234804 67 315 0.0 1.0 0.00 0.00 0.00 89 1020.9
20260905234304 67 313 1.0 1.0 0.00 0.00 0.00 89 1020.8
20260905233804 67 314 0.0 2.0 0.00 0.00 0.00 88 1020.9
20260905233303 67 314 1.0 2.0 0.00 0.00 0.00 88 1020.9
20260905232803 68 315 0.0 1.0 0.00 0.00 0.00 87 1020.9
20260905231804 68 319 0.0 1.0 0.00 0.00 0.00 87 1020.8
20260905231304 68 314 1.0 2.0 0.00 0.00 0.00 86 1020.8
20260905230804 69 313 0.0 2.0 0.00 0.00 0.00 86 1020.7
20260905230303 69 313 0.0 3.0 0.00 0.00 0.00 86 1020.7
20260905225817 69 313 0.0 3.0 0.00 0.00 0.00 86 1020.7
20260905224818 69 311 1.0 3.0 0.00 0.00 0.00 86 1020.5
20260905224317 69 311 0.0 3.0 0.00 0.00 0.00 86 1020.5
20260905223816 69 312 1.0 3.0 0.00 0.00 0.00 86 1020.4
20260905222316 69 268 1.0 2.0 0.00 0.00 0.00 86 1020.3
20260905221316 69 271 2.0 3.0 0.00 0.00 0.00 86 1020.3
20260905220824 70 272 0.0 2.0 0.00 0.00 0.00 86 1020.2
20260905220317 70 274 1.0 2.0 0.00 0.00 0.00 86 1020.2
20260905215816 70 274 1.0 2.0 0.00 0.00 0.00 86 1020.2
20260905215316 70 276 1.0 3.0 0.00 0.00 0.00 85 1020.2
20260905214316 70 278 1.0 2.0 0.00 0.00 0.00 84 1020.1
20260905213816 71 276 1.0 3.0 0.00 0.00 0.00 84 1020.1
20260905213317 71 276 1.0 3.0 0.00 0.00 0.00 83 1020.0
20260905212817 71 275 2.0 3.0 0.00 0.00 0.00 83 1020.1
20260905211817 71 336 2.0 3.0 0.00 0.00 0.00 83 1020.0
20260905211317 71 336 1.0 3.0 0.00 0.00 0.00 81 1020.0
20260905210816 71 336 1.0 3.0 0.00 0.00 0.00 81 1020.0
20260905210317 71 337 1.0 3.0 0.00 0.00 0.00 81 1020.0
20260905205816 71 336 1.0 3.0 0.00 0.00 0.00 81 1020.0
20260905204817 71 336 1.0 3.0 0.00 0.00 0.00 81 1019.9
20260905204316 71 336 1.0 3.0 0.00 0.00 0.00 82 1020.0
20260905203818 71 336 2.0 3.0 0.00 0.00 0.00 82 1019.9
20260905203316 71 336 1.0 3.0 0.00 0.00 0.00 81 1019.8
20260905202816 71 336 1.0 3.0 0.00 0.00 0.00 82 1019.8
20260905202317 71 336 1.0 3.0 0.00 0.00 0.00 81 1019.7
20260905201817 71 333 2.0 3.0 0.00 0.00 0.00 81 1019.7
20260905200816 71 332 1.0 3.0 0.00 0.00 0.00 82 1019.6
20260905200316 71 331 1.0 3.0 0.00 0.00 0.00 82 1019.6
20260905195816 71 331 2.0 3.0 0.00 0.00 0.00 82 1019.5
20260905195317 71 329 1.0 3.0 0.00 0.00 0.00 82 1019.4
20260905194816 71 328 1.0 3.0 0.00 0.00 0.00 81 1019.4
20260905194316 71 327 2.0 3.0 0.00 0.00 0.00 81 1019.3
20260905193816 71 327 1.0 3.0 0.00 0.00 0.00 82 1019.2
20260905192817 72 324 2.0 3.0 0.00 0.00 0.00 81 1019.1
20260905192316 72 323 1.0 3.0 0.00 0.00 0.00 80 1019.1
20260905191816 72 322 2.0 3.0 0.00 0.00 0.00 80 1018.9
20260905191316 72 333 3.0 3.0 0.00 0.00 0.00 80 1018.8
20260905190816 72 312 0.0 1.0 0.00 0.00 0.00 80 1018.8
20260905190316 73 312 0.0 1.0 0.00 0.00 0.00 79 1018.7
20260905185816 73 352 1.0 2.0 0.00 0.00 0.00 79 1018.8
20260905185316 73 290 1.0 3.0 0.00 0.00 0.00 79 1018.7
20260905184816 73 290 0.0 3.0 0.00 0.00 0.00 78 1018.8
20260905184316 74 288 2.0 3.0 0.00 0.00 0.00 78 1018.5
20260905183816 74 319 2.0 3.0 0.00 0.00 0.00 78 1018.4
20260905183316 74 323 1.0 3.0 0.00 0.00 0.00 78 1018.2
20260905182817 74 321 1.0 5.0 0.00 0.00 0.00 77 1018.2
20260905182316 75 322 2.0 5.0 0.00 0.00 0.00 76 1018.2
20260905181816 75 298 1.0 3.0 0.00 0.00 0.00 76 1018.1
20260905181316 76 295 2.0 3.0 0.00 0.00 0.00 76 1018.0
20260905180816 76 296 2.0 3.0 0.00 0.00 0.00 75 1018.0
20260905180316 76 282 1.0 6.0 0.00 0.00 0.00 74 1017.9
20260905175816 77 200 2.0 6.0 0.00 0.00 0.00 73 1017.9
20260905175316 76 191 2.0 6.0 0.00 0.00 0.00 72 1017.7
20260905174816 77 324 1.0 5.0 0.00 0.00 0.00 74 1017.6
20260905174316 78 324 2.0 5.0 0.00 0.00 0.00 72 1017.5
20260905173816 79 298 2.0 3.0 0.00 0.00 0.00 69 1017.5
20260905173316 80 167 2.0 7.0 0.00 0.00 0.00 67 1017.3
20260905172316 80 87 3.0 12.0 0.00 0.00 0.00 63 1017.3
20260905171816 81 139 6.0 12.0 0.00 0.00 0.00 62 1017.3
20260905171316 81 118 5.0 12.0 0.00 0.00 0.00 63 1017.1
20260905170316 81 137 8.0 17.0 0.00 0.00 0.00 62 1017.0
20260905165815 81 129 9.0 15.0 0.00 0.00 0.00 63 1016.9
20260905165316 81 130 8.0 15.0 0.00 0.00 0.00 63 1016.7
20260905164816 82 143 9.0 15.0 0.00 0.00 0.00 62 1016.6
20260905164317 82 169 7.0 15.0 0.00 0.00 0.00 60 1016.5
20260905163816 83 153 6.0 16.0 0.00 0.00 0.00 59 1016.3
20260905163316 83 133 9.0 16.0 0.00 0.00 0.00 58 1016.2
20260905162816 83 121 9.0 15.0 0.00 0.00 0.00 57 1016.2
20260905162316 83 160 9.0 15.0 0.00 0.00 0.00 57 1016.0
20260905161316 84 127 9.0 16.0 0.00 0.00 0.00 56 1015.9
20260905160316 85 131 8.0 16.0 0.00 0.00 0.00 54 1015.8
20260905155815 86 140 6.0 15.0 0.00 0.00 0.00 54 1015.7
20260905154815 86 124 6.0 14.0 0.00 0.00 0.00 53 1015.5
20260905154317 86 138 7.0 12.0 0.00 0.00 0.00 54 1015.5
20260905153816 87 79 1.0 3.0 0.00 0.00 0.00 53 1015.5
20260905153316 87 195 1.0 3.0 0.00 0.00 0.00 52 1015.4
20260905152815 87 209 1.0 3.0 0.00 0.00 0.00 52 1015.4
20260905152316 87 209 1.0 3.0 0.00 0.00 0.00 52 1015.5
20260905151316 87 187 1.0 5.0 0.00 0.00 0.00 49 1015.6
20260905150816 87 186 0.0 5.0 0.00 0.00 0.00 49 1015.5
20260905150316 87 186 3.0 5.0 0.00 0.00 0.00 50 1015.5
20260905145816 87 186 0.0 1.0 0.00 0.00 0.00 49 1015.5
20260905145316 87 186 0.0 2.0 0.00 0.00 0.00 49 1015.3
20260905144315 87 160 1.0 3.0 0.00 0.00 0.00 48 1015.3
20260905143816 87 160 2.0 5.0 0.00 0.00 0.00 48 1015.3
20260905143316 87 161 1.0 5.0 0.00 0.00 0.00 46 1015.1
20260905142816 87 161 3.0 5.0 0.00 0.00 0.00 47 1015.1
20260905142316 87 114 2.0 3.0 0.00 0.00 0.00 48 1015.2
20260905141816 87 228 1.0 3.0 0.00 0.00 0.00 46 1015.3
20260905141315 87 131 1.0 3.0 0.00 0.00 0.00 47 1015.4
20260905140816 87 130 2.0 6.0 0.00 0.00 0.00 46 1015.3
20260905135817 87 112 3.0 6.0 0.00 0.00 0.00 44 1015.3
20260905134816 87 164 5.0 6.0 0.00 0.00 0.00 46 1015.5
20260905133315 87 89 2.0 3.0 0.00 0.00 0.00 45 1015.4
20260905132816 87 119 2.0 7.0 0.00 0.00 0.00 46 1015.5
20260905132315 87 111 2.0 7.0 0.00 0.00 0.00 46 1015.4
20260905131815 87 133 3.0 7.0 0.00 0.00 0.00 45 1015.4
20260905131315 88 94 2.0 3.0 0.00 0.00 0.00 46 1015.4
20260905130315 88 109 2.0 7.0 0.00 0.00 0.00 44 1015.4
20260905125316 88 157 2.0 3.0 0.00 0.00 0.00 47 1015.5
20260905124816 87 130 1.0 6.0 0.00 0.00 0.00 49 1015.6
20260905124315 87 126 3.0 6.0 0.00 0.00 0.00 50 1015.7
20260905123815 87 109 1.0 5.0 0.00 0.00 0.00 51 1015.7
20260905123316 87 119 3.0 5.0 0.00 0.00 0.00 51 1015.8
20260905122315 87 110 1.0 3.0 0.00 0.00 0.00 53 1015.8
20260905121316 86 109 3.0 6.0 0.00 0.00 0.00 53 1015.9
20260905120815 86 150 1.0 2.0 0.00 0.00 0.00 56 1016.0
20260905120315 86 146 1.0 3.0 0.00 0.00 0.00 55 1016.0
20260905115816 86 144 2.0 3.0 0.00 0.00 0.00 58 1016.1
20260905115315 85 144 2.0 3.0 0.00 0.00 0.00 55 1016.0
20260905114316 85 144 1.0 3.0 0.00 0.00 0.00 60 1016.1
20260905113816 85 95 2.0 3.0 0.00 0.00 0.00 61 1016.1
20260905113316 85 94 2.0 3.0 0.00 0.00 0.00 61 1016.2
20260905112815 84 75 1.0 3.0 0.00 0.00 0.00 62 1016.2
20260905112316 84 68 2.0 3.0 0.00 0.00 0.00 62 1016.2
20260905111816 84 66 2.0 3.0 0.00 0.00 0.00 62 1016.2
20260905111316 83 94 1.0 3.0 0.00 0.00 0.00 63 1016.3
20260905110816 83 94 1.0 3.0 0.00 0.00 0.00 64 1016.2
20260905110316 83 84 2.0 3.0 0.00 0.00 0.00 65 1016.2
20260905105315 83 84 1.0 3.0 0.00 0.00 0.00 67 1016.3
20260905104815 82 167 2.0 7.0 0.00 0.00 0.00 68 1016.3
20260905104316 82 166 2.0 7.0 0.00 0.00 0.00 69 1016.4
20260905103815 82 162 3.0 7.0 0.00 0.00 0.00 69 1016.4
20260905103315 82 94 2.0 3.0 0.00 0.00 0.00 70 1016.5
20260905102815 81 114 2.0 3.0 0.00 0.00 0.00 72 1016.5
20260905101815 80 115 1.0 3.0 0.00 0.00 0.00 73 1016.6
20260905101315 79 116 1.0 3.0 0.00 0.00 0.00 74 1016.6
20260905100816 79 115 1.0 3.0 0.00 0.00 0.00 75 1016.5
20260905100315 78 113 1.0 3.0 0.00 0.00 0.00 75 1016.5
20260905095815 78 113 1.0 3.0 0.00 0.00 0.00 77 1016.6
20260905095315 77 113 2.0 3.0 0.00 0.00 0.00 76 1016.7
20260905094815 77 113 2.0 3.0 0.00 0.00 0.00 76 1016.8
20260905093816 77 113 2.0 3.0 0.00 0.00 0.00 76 1016.7
20260905093315 76 105 1.0 3.0 0.00 0.00 0.00 77 1016.6
20260905092315 76 105 2.0 3.0 0.00 0.00 0.00 79 1016.7
20260905091815 76 105 1.0 3.0 0.00 0.00 0.00 78 1016.6
20260905091315 76 105 1.0 3.0 0.00 0.00 0.00 78 1016.7
20260905085314 75 105 1.0 2.0 0.00 0.00 0.00 80 1016.8
20260905084815 74 105 0.0 2.0 0.00 0.00 0.00 79 1016.8
20260905084314 74 105 1.0 2.0 0.00 0.00 0.00 79 1016.7
20260905083315 74 105 1.0 2.0 0.00 0.00 0.00 79 1016.8
20260905082315 74 105 1.0 2.0 0.00 0.00 0.00 79 1016.8
20260905081815 74 105 1.0 3.0 0.00 0.00 0.00 79 1016.7
20260905081315 74 105 1.0 3.0 0.00 0.00 0.00 81 1016.6
20260905080815 73 105 1.0 3.0 0.00 0.00 0.00 81 1016.4
20260905075815 73 105 1.0 2.0 0.00 0.00 0.00 81 1016.5
20260905075315 73 105 1.0 2.0 0.00 0.00 0.00 81 1016.5
20260905074816 73 104 1.0 2.0 0.00 0.00 0.00 81 1016.5
20260905074315 73 104 1.0 3.0 0.00 0.00 0.00 81 1016.6
20260905073815 73 105 1.0 3.0 0.00 0.00 0.00 82 1016.6
20260905073315 73 105 2.0 3.0 0.00 0.00 0.00 81 1016.6
20260905072815 72 82 1.0 3.0 0.00 0.00 0.00 84 1016.6
20260905071315 70 82 1.0 2.0 0.00 0.00 0.00 87 1016.6
20260905070315 68 82 1.0 2.0 0.00 0.00 0.00 90 1016.5
20260905065314 67 95 0.0 3.0 0.00 0.00 0.00 91 1016.4
20260905064815 66 98 1.0 3.0 0.00 0.00 0.00 92 1016.4
20260905064315 66 327 1.0 2.0 0.00 0.00 0.00 92 1016.4
20260905063815 66 333 1.0 3.0 0.00 0.00 0.00 92 1016.6
20260905062815 65 329 1.0 3.0 0.00 0.00 0.00 94 1016.3
20260905061815 64 332 1.0 2.0 0.00 0.00 0.00 96 1016.3
20260905061315 64 334 0.0 2.0 0.00 0.00 0.00 97 1016.2
20260905060815 64 330 0.0 1.0 0.00 0.00 0.00 97 1016.2
20260905060315 63 334 0.0 0.0 0.00 0.00 0.00 97 1016.2